Year,Month,Day,Hour,Minute,Value (Times are PST for temperature in C)
2015,06,23,00,00,15.60
2015,06,23,00,01,15.50
2015,06,23,00,02,15.50
2015,06,23,00,03,15.40
2015,06,23,00,04,15.30
2015,06,23,00,05,15.30
2015,06,23,00,06,15.20
2015,06,23,00,07,15.10
2015,06,23,00,08,15.00
2015,06,23,00,09,14.90
2015,06,23,00,10,14.90
2015,06,23,00,11,14.80
2015,06,23,00,12,14.70
2015,06,23,00,13,14.70
2015,06,23,00,14,14.60
2015,06,23,00,15,14.60
2015,06,23,00,16,14.50
2015,06,23,00,17,14.50
2015,06,23,00,18,14.40
2015,06,23,00,19,14.40
2015,06,23,00,20,14.30
2015,06,23,00,21,14.30
2015,06,23,00,22,14.30
2015,06,23,00,23,14.30
2015,06,23,00,24,14.20
2015,06,23,00,25,14.20
2015,06,23,00,26,14.20
2015,06,23,00,27,14.20
2015,06,23,00,28,14.10
2015,06,23,00,29,14.10
2015,06,23,00,30,14.10
2015,06,23,00,31,14.00
2015,06,23,00,32,14.00
2015,06,23,00,33,13.90
2015,06,23,00,34,13.90
2015,06,23,00,35,13.90
2015,06,23,00,36,13.80
2015,06,23,00,37,13.80
2015,06,23,00,38,13.80
2015,06,23,00,39,13.80
2015,06,23,00,40,13.70
2015,06,23,00,41,13.70
2015,06,23,00,42,13.70
2015,06,23,00,43,13.70
2015,06,23,00,44,13.60
2015,06,23,00,45,13.60
2015,06,23,00,46,13.60
2015,06,23,00,47,13.60
2015,06,23,00,48,13.60
2015,06,23,00,49,13.70
2015,06,23,00,50,13.70
2015,06,23,00,51,13.70
2015,06,23,00,52,13.70
2015,06,23,00,53,13.70
2015,06,23,00,54,13.70
2015,06,23,00,55,13.70
2015,06,23,00,56,13.60
2015,06,23,00,57,13.60
2015,06,23,00,58,13.60
2015,06,23,00,59,13.60
2015,06,23,01,00,13.60
2015,06,23,01,01,13.50
2015,06,23,01,02,13.50
2015,06,23,01,03,13.50
2015,06,23,01,04,13.40
2015,06,23,01,05,13.40
2015,06,23,01,06,13.40
2015,06,23,01,07,13.40
2015,06,23,01,08,13.40
2015,06,23,01,09,13.40
2015,06,23,01,10,13.40
2015,06,23,01,11,13.30
2015,06,23,01,12,13.30
2015,06,23,01,13,13.20
2015,06,23,01,14,13.20
2015,06,23,01,15,13.10
2015,06,23,01,16,13.10
2015,06,23,01,17,13.00
2015,06,23,01,18,12.90
2015,06,23,01,19,12.90
2015,06,23,01,20,12.90
2015,06,23,01,21,12.80
2015,06,23,01,22,12.80
2015,06,23,01,23,12.80
2015,06,23,01,24,12.70
2015,06,23,01,25,12.70
2015,06,23,01,26,12.70
2015,06,23,01,27,12.60
2015,06,23,01,28,12.60
2015,06,23,01,29,12.60
2015,06,23,01,30,12.60
2015,06,23,01,31,12.50
2015,06,23,01,32,12.40
2015,06,23,01,33,12.40
2015,06,23,01,34,12.40
2015,06,23,01,35,12.30
2015,06,23,01,36,12.30
2015,06,23,01,37,12.30
2015,06,23,01,38,12.20
2015,06,23,01,39,12.20
2015,06,23,01,40,12.20
2015,06,23,01,41,12.10
2015,06,23,01,42,12.10
2015,06,23,01,43,12.10
2015,06,23,01,44,12.00
2015,06,23,01,45,12.00
2015,06,23,01,46,11.90
2015,06,23,01,47,11.90
2015,06,23,01,48,11.90
2015,06,23,01,49,11.80
2015,06,23,01,50,11.80
2015,06,23,01,51,11.80
2015,06,23,01,52,11.80
2015,06,23,01,53,11.80
2015,06,23,01,54,11.70
2015,06,23,01,55,11.70
2015,06,23,01,56,11.70
2015,06,23,01,57,11.70
2015,06,23,01,58,11.60
2015,06,23,01,59,11.60
2015,06,23,02,00,11.60
2015,06,23,02,01,11.60
2015,06,23,02,02,11.60
2015,06,23,02,03,11.60
2015,06,23,02,04,11.50
2015,06,23,02,05,11.50
2015,06,23,02,06,11.40
2015,06,23,02,07,11.40
2015,06,23,02,08,11.30
2015,06,23,02,09,11.30
2015,06,23,02,10,11.30
2015,06,23,02,11,11.30
2015,06,23,02,12,11.20
2015,06,23,02,13,11.20
2015,06,23,02,14,11.20
2015,06,23,02,15,11.20
2015,06,23,02,16,11.10
2015,06,23,02,17,11.10
2015,06,23,02,18,11.10
2015,06,23,02,19,11.10
2015,06,23,02,20,11.00
2015,06,23,02,21,11.00
2015,06,23,02,22,10.90
2015,06,23,02,23,10.90
2015,06,23,02,24,10.90
2015,06,23,02,25,10.90
2015,06,23,02,26,10.80
2015,06,23,02,27,10.80
2015,06,23,02,28,10.80
2015,06,23,02,29,10.80
2015,06,23,02,30,10.70
2015,06,23,02,31,10.70
2015,06,23,02,32,10.70
2015,06,23,02,33,10.70
2015,06,23,02,34,10.60
2015,06,23,02,35,10.60
2015,06,23,02,36,10.60
2015,06,23,02,37,10.60
2015,06,23,02,38,10.50
2015,06,23,02,39,10.50
2015,06,23,02,40,10.50
2015,06,23,02,41,10.50
2015,06,23,02,42,10.40
2015,06,23,02,43,10.40
2015,06,23,02,44,10.40
2015,06,23,02,45,10.40
2015,06,23,02,46,10.30
2015,06,23,02,47,10.30
2015,06,23,02,48,10.30
2015,06,23,02,49,10.30
2015,06,23,02,50,10.20
2015,06,23,02,51,10.20
2015,06,23,02,52,10.20
2015,06,23,02,53,10.20
2015,06,23,02,54,10.10
2015,06,23,02,55,10.10
2015,06,23,02,56,10.10
2015,06,23,02,57,10.10
2015,06,23,02,58,10.00
2015,06,23,02,59,10.00
2015,06,23,03,00,10.00
2015,06,23,03,01,10.00
2015,06,23,03,02,10.00
2015,06,23,03,03,9.90
2015,06,23,03,04,9.90
2015,06,23,03,05,9.90
2015,06,23,03,06,9.90
2015,06,23,03,07,9.90
2015,06,23,03,08,9.80
2015,06,23,03,09,9.80
2015,06,23,03,10,9.80
2015,06,23,03,11,9.80
2015,06,23,03,12,9.80
2015,06,23,03,13,9.70
2015,06,23,03,14,9.70
2015,06,23,03,15,9.70
2015,06,23,03,16,9.70
2015,06,23,03,17,9.70
2015,06,23,03,18,9.60
2015,06,23,03,19,9.60
2015,06,23,03,20,9.60
2015,06,23,03,21,9.60
2015,06,23,03,22,9.60
2015,06,23,03,23,9.50
2015,06,23,03,24,9.50
2015,06,23,03,25,9.50
2015,06,23,03,26,9.40
2015,06,23,03,27,9.40
2015,06,23,03,28,9.40
2015,06,23,03,29,9.30
2015,06,23,03,30,9.30
2015,06,23,03,31,9.30
2015,06,23,03,32,9.30
2015,06,23,03,33,9.30
2015,06,23,03,34,9.20
2015,06,23,03,35,9.20
2015,06,23,03,36,9.20
2015,06,23,03,37,9.20
2015,06,23,03,38,9.20
2015,06,23,03,39,9.10
2015,06,23,03,40,9.10
2015,06,23,03,41,9.10
2015,06,23,03,42,9.10
2015,06,23,03,43,9.10
2015,06,23,03,44,9.00
2015,06,23,03,45,9.00
2015,06,23,03,46,9.00
2015,06,23,03,47,8.90
2015,06,23,03,48,8.90
2015,06,23,03,49,8.90
2015,06,23,03,50,8.90
2015,06,23,03,51,8.80
2015,06,23,03,52,8.80
2015,06,23,03,53,8.80
2015,06,23,03,54,8.80
2015,06,23,03,55,8.80
2015,06,23,03,56,8.80
2015,06,23,03,57,8.80
2015,06,23,03,58,8.80
2015,06,23,03,59,8.80
2015,06,23,04,00,8.70
2015,06,23,04,01,8.70
2015,06,23,04,02,8.70
2015,06,23,04,03,8.70
2015,06,23,04,04,8.70
2015,06,23,04,05,8.70
2015,06,23,04,06,8.70
2015,06,23,04,07,8.60
2015,06,23,04,08,8.60
2015,06,23,04,09,8.60
2015,06,23,04,10,8.60
2015,06,23,04,11,8.60
2015,06,23,04,12,8.60
2015,06,23,04,13,8.60
2015,06,23,04,14,8.50
2015,06,23,04,15,8.50
2015,06,23,04,16,8.50
2015,06,23,04,17,8.40
2015,06,23,04,18,8.40
2015,06,23,04,19,8.40
2015,06,23,04,20,8.40
2015,06,23,04,21,8.40
2015,06,23,04,22,8.40
2015,06,23,04,23,8.40
2015,06,23,04,24,8.40
2015,06,23,04,25,8.40
2015,06,23,04,26,8.30
2015,06,23,04,27,8.30
2015,06,23,04,28,8.30
2015,06,23,04,29,8.30
2015,06,23,04,30,8.30
2015,06,23,04,31,8.30
2015,06,23,04,32,8.20
2015,06,23,04,33,8.20
2015,06,23,04,34,8.20
2015,06,23,04,35,8.20
2015,06,23,04,36,8.20
2015,06,23,04,37,8.20
2015,06,23,04,38,8.10
2015,06,23,04,39,8.10
2015,06,23,04,40,8.10
2015,06,23,04,41,8.10
2015,06,23,04,42,8.10
2015,06,23,04,43,8.00
2015,06,23,04,44,8.00
2015,06,23,04,45,8.00
2015,06,23,04,46,8.00
2015,06,23,04,47,7.90
2015,06,23,04,48,7.90
2015,06,23,04,49,7.90
2015,06,23,04,50,7.90
2015,06,23,04,51,7.90
2015,06,23,04,52,7.80
2015,06,23,04,53,7.80
2015,06,23,04,54,7.80
2015,06,23,04,55,7.80
2015,06,23,04,56,7.80
2015,06,23,04,57,7.80
2015,06,23,04,58,7.80
2015,06,23,04,59,7.80
2015,06,23,05,00,7.80
2015,06,23,05,01,7.80
2015,06,23,05,02,7.80
2015,06,23,05,03,7.80
2015,06,23,05,04,7.80
2015,06,23,05,05,7.70
2015,06,23,05,06,7.70
2015,06,23,05,07,7.70
2015,06,23,05,08,7.70
2015,06,23,05,09,7.70
2015,06,23,05,10,7.70
2015,06,23,05,11,7.70
2015,06,23,05,12,7.70
2015,06,23,05,13,7.60
2015,06,23,05,14,7.60
2015,06,23,05,15,7.60
2015,06,23,05,16,7.60
2015,06,23,05,17,7.60
2015,06,23,05,18,7.60
2015,06,23,05,19,7.60
2015,06,23,05,20,7.50
2015,06,23,05,21,7.50
2015,06,23,05,22,7.50
2015,06,23,05,23,7.50
2015,06,23,05,24,7.50
2015,06,23,05,25,7.50
2015,06,23,05,26,7.50
2015,06,23,05,27,7.50
2015,06,23,05,28,7.50
2015,06,23,05,29,7.50
2015,06,23,05,30,7.40
2015,06,23,05,31,7.40
2015,06,23,05,32,7.40
2015,06,23,05,33,7.40
2015,06,23,05,34,7.40
2015,06,23,05,35,7.40
2015,06,23,05,36,7.40
2015,06,23,05,37,7.40
2015,06,23,05,38,7.40
2015,06,23,05,39,7.40
2015,06,23,05,40,7.30
2015,06,23,05,41,7.30
2015,06,23,05,42,7.30
2015,06,23,05,43,7.30
2015,06,23,05,44,7.30
2015,06,23,05,45,7.30
2015,06,23,05,46,7.20
2015,06,23,05,47,7.20
2015,06,23,05,48,7.20
2015,06,23,05,49,7.20
2015,06,23,05,50,7.20
2015,06,23,05,51,7.20
2015,06,23,05,52,7.20
2015,06,23,05,53,7.20
2015,06,23,05,54,7.20
2015,06,23,05,55,7.20
2015,06,23,05,56,7.20
2015,06,23,05,57,7.20
2015,06,23,05,58,7.20
2015,06,23,05,59,7.20
2015,06,23,06,00,7.20
2015,06,23,06,01,7.20
2015,06,23,06,02,7.20
2015,06,23,06,03,7.20
2015,06,23,06,04,7.20
2015,06,23,06,05,7.20
2015,06,23,06,06,7.20
2015,06,23,06,07,7.20
2015,06,23,06,08,7.20
2015,06,23,06,09,7.20
2015,06,23,06,10,7.20
2015,06,23,06,11,7.20
2015,06,23,06,12,7.20
2015,06,23,06,13,7.20
2015,06,23,06,14,7.20
2015,06,23,06,15,7.20
2015,06,23,06,16,7.30
2015,06,23,06,17,7.30
2015,06,23,06,18,7.40
2015,06,23,06,19,7.40
2015,06,23,06,20,7.50
2015,06,23,06,21,7.60
2015,06,23,06,22,7.70
2015,06,23,06,23,7.70
2015,06,23,06,24,7.80
2015,06,23,06,25,7.90
2015,06,23,06,26,8.10
2015,06,23,06,27,8.20
2015,06,23,06,28,8.30
2015,06,23,06,29,8.40
2015,06,23,06,30,8.50
2015,06,23,06,31,8.60
2015,06,23,06,32,8.70
2015,06,23,06,33,8.80
2015,06,23,06,34,8.90
2015,06,23,06,35,9.00
2015,06,23,06,36,9.10
2015,06,23,06,37,9.20
2015,06,23,06,38,9.30
2015,06,23,06,39,9.40
2015,06,23,06,40,9.50
2015,06,23,06,41,9.50
2015,06,23,06,42,9.60
2015,06,23,06,43,9.70
2015,06,23,06,44,9.80
2015,06,23,06,45,9.90
2015,06,23,06,46,10.00
2015,06,23,06,47,10.10
2015,06,23,06,48,10.20
2015,06,23,06,49,10.20
2015,06,23,06,50,10.30
2015,06,23,06,51,10.40
2015,06,23,06,52,10.40
2015,06,23,06,53,10.50
2015,06,23,06,54,10.50
2015,06,23,06,55,10.60
2015,06,23,06,56,10.60
2015,06,23,06,57,10.70
2015,06,23,06,58,10.70
2015,06,23,06,59,10.80
2015,06,23,07,00,10.90
2015,06,23,07,01,10.90
2015,06,23,07,02,11.00
2015,06,23,07,03,11.10
2015,06,23,07,04,11.20
2015,06,23,07,05,11.30
2015,06,23,07,06,11.40
2015,06,23,07,07,11.40
2015,06,23,07,08,11.50
2015,06,23,07,09,11.60
2015,06,23,07,10,11.60
2015,06,23,07,11,11.70
2015,06,23,07,12,11.70
2015,06,23,07,13,11.80
2015,06,23,07,14,11.80
2015,06,23,07,15,11.90
2015,06,23,07,16,12.00
2015,06,23,07,17,12.10
2015,06,23,07,18,12.20
2015,06,23,07,19,12.20
2015,06,23,07,20,12.30
2015,06,23,07,21,12.40
2015,06,23,07,22,12.50
2015,06,23,07,23,12.60
2015,06,23,07,24,12.60
2015,06,23,07,25,12.70
2015,06,23,07,26,12.70
2015,06,23,07,27,12.80
2015,06,23,07,28,12.80
2015,06,23,07,29,12.80
2015,06,23,07,30,12.90
2015,06,23,07,31,12.90
2015,06,23,07,32,13.00
2015,06,23,07,33,13.00
2015,06,23,07,34,13.10
2015,06,23,07,35,13.20
2015,06,23,07,36,13.30
2015,06,23,07,37,13.40
2015,06,23,07,38,13.50
2015,06,23,07,39,13.50
2015,06,23,07,40,13.60
2015,06,23,07,41,13.60
2015,06,23,07,42,13.70
2015,06,23,07,43,13.80
2015,06,23,07,44,13.80
2015,06,23,07,45,13.90
2015,06,23,07,46,14.00
2015,06,23,07,47,14.00
2015,06,23,07,48,14.10
2015,06,23,07,49,14.10
2015,06,23,07,50,14.20
2015,06,23,07,51,14.20
2015,06,23,07,52,14.30
2015,06,23,07,53,14.30
2015,06,23,07,54,14.40
2015,06,23,07,55,14.50
2015,06,23,07,56,14.60
2015,06,23,07,57,14.70
2015,06,23,07,58,14.80
2015,06,23,07,59,14.80
2015,06,23,08,00,14.90
2015,06,23,08,01,14.90
2015,06,23,08,02,15.00
2015,06,23,08,03,15.10
2015,06,23,08,04,15.20
2015,06,23,08,05,15.30
2015,06,23,08,06,15.40
2015,06,23,08,07,15.60
2015,06,23,08,08,15.70
2015,06,23,08,09,15.90
2015,06,23,08,10,16.00
2015,06,23,08,11,16.10
2015,06,23,08,12,16.20
2015,06,23,08,13,16.30
2015,06,23,08,14,16.40
2015,06,23,08,15,16.50
2015,06,23,08,16,16.50
2015,06,23,08,17,16.60
2015,06,23,08,18,16.70
2015,06,23,08,19,16.80
2015,06,23,08,20,16.90
2015,06,23,08,21,16.90
2015,06,23,08,22,17.00
2015,06,23,08,23,17.10
2015,06,23,08,24,17.20
2015,06,23,08,25,17.20
2015,06,23,08,26,17.30
2015,06,23,08,27,17.30
2015,06,23,08,28,17.40
2015,06,23,08,29,17.40
2015,06,23,08,30,17.50
2015,06,23,08,31,17.60
2015,06,23,08,32,17.70
2015,06,23,08,33,17.80
2015,06,23,08,34,17.90
2015,06,23,08,35,17.90
2015,06,23,08,36,18.00
2015,06,23,08,37,18.10
2015,06,23,08,38,18.10
2015,06,23,08,39,18.30
2015,06,23,08,40,18.30
2015,06,23,08,41,18.40
2015,06,23,08,42,18.50
2015,06,23,08,43,18.50
2015,06,23,08,44,18.60
2015,06,23,08,45,18.60
2015,06,23,08,46,18.60
2015,06,23,08,47,18.60
2015,06,23,08,48,18.60
2015,06,23,08,49,18.60
2015,06,23,08,50,18.60
2015,06,23,08,51,18.60
2015,06,23,08,52,18.70
2015,06,23,08,53,18.70
2015,06,23,08,54,18.70
2015,06,23,08,55,18.70
2015,06,23,08,56,18.80
2015,06,23,08,57,18.80
2015,06,23,08,58,18.90
2015,06,23,08,59,19.00
2015,06,23,09,00,19.00
2015,06,23,09,01,19.10
2015,06,23,09,02,19.10
2015,06,23,09,03,19.10
2015,06,23,09,04,19.10
2015,06,23,09,05,19.20
2015,06,23,09,06,19.20
2015,06,23,09,07,19.20
2015,06,23,09,08,19.30
2015,06,23,09,09,19.30
2015,06,23,09,10,19.30
2015,06,23,09,11,19.30
2015,06,23,09,12,19.30
2015,06,23,09,13,19.30
2015,06,23,09,14,19.40
2015,06,23,09,15,19.50
2015,06,23,09,16,19.50
2015,06,23,09,17,19.60
2015,06,23,09,18,19.60
2015,06,23,09,19,19.60
2015,06,23,09,20,19.60
2015,06,23,09,21,19.70
2015,06,23,09,22,19.70
2015,06,23,09,23,19.80
2015,06,23,09,24,19.80
2015,06,23,09,25,19.90
2015,06,23,09,26,19.90
2015,06,23,09,27,20.00
2015,06,23,09,28,20.10
2015,06,23,09,29,20.10
2015,06,23,09,30,20.10
2015,06,23,09,31,20.10
2015,06,23,09,32,20.10
2015,06,23,09,33,20.10
2015,06,23,09,34,20.20
2015,06,23,09,35,20.20
2015,06,23,09,36,20.20
2015,06,23,09,37,20.20
2015,06,23,09,38,20.20
2015,06,23,09,39,20.30
2015,06,23,09,40,20.30
2015,06,23,09,41,20.40
2015,06,23,09,42,20.40
2015,06,23,09,43,20.40
2015,06,23,09,44,20.30
2015,06,23,09,45,20.20
2015,06,23,09,46,20.10
2015,06,23,09,47,19.90
2015,06,23,09,48,19.90
2015,06,23,09,49,19.90
2015,06,23,09,50,19.90
2015,06,23,09,51,19.90
2015,06,23,09,52,20.00
2015,06,23,09,53,20.00
2015,06,23,09,54,20.10
2015,06,23,09,55,20.10
2015,06,23,09,56,20.00
2015,06,23,09,57,19.90
2015,06,23,09,58,19.90
2015,06,23,09,59,20.00
2015,06,23,10,00,20.00
2015,06,23,10,01,20.10
2015,06,23,10,02,20.20
2015,06,23,10,03,20.30
2015,06,23,10,04,20.40
2015,06,23,10,05,20.50
2015,06,23,10,06,20.60
2015,06,23,10,07,20.60
2015,06,23,10,08,20.60
2015,06,23,10,09,20.70
2015,06,23,10,10,20.70
2015,06,23,10,11,20.80
2015,06,23,10,12,20.80
2015,06,23,10,13,20.70
2015,06,23,10,14,20.60
2015,06,23,10,15,20.50
2015,06,23,10,16,20.40
2015,06,23,10,17,20.30
2015,06,23,10,18,20.30
2015,06,23,10,19,20.40
2015,06,23,10,20,20.40
2015,06,23,10,21,20.50
2015,06,23,10,22,20.60
2015,06,23,10,23,20.60
2015,06,23,10,24,20.70
2015,06,23,10,25,20.80
2015,06,23,10,26,20.90
2015,06,23,10,27,20.90
2015,06,23,10,28,20.90
2015,06,23,10,29,20.90
2015,06,23,10,30,21.00
2015,06,23,10,31,21.00
2015,06,23,10,32,21.10
2015,06,23,10,33,21.10
2015,06,23,10,34,21.10
2015,06,23,10,35,21.10
2015,06,23,10,36,21.10
2015,06,23,10,37,21.00
2015,06,23,10,38,21.00
2015,06,23,10,39,20.90
2015,06,23,10,40,20.90
2015,06,23,10,41,20.90
2015,06,23,10,42,20.90
2015,06,23,10,43,21.00
2015,06,23,10,44,21.00
2015,06,23,10,45,21.10
2015,06,23,10,46,21.20
2015,06,23,10,47,21.30
2015,06,23,10,48,21.40
2015,06,23,10,49,21.50
2015,06,23,10,50,21.60
2015,06,23,10,51,21.50
2015,06,23,10,52,21.40
2015,06,23,10,53,21.40
2015,06,23,10,54,21.40
2015,06,23,10,55,21.40
2015,06,23,10,56,21.50
2015,06,23,10,57,21.60
2015,06,23,10,58,21.70
2015,06,23,10,59,21.70
2015,06,23,11,00,21.80
2015,06,23,11,01,21.70
2015,06,23,11,02,21.60
2015,06,23,11,03,21.50
2015,06,23,11,04,21.40
2015,06,23,11,05,21.40
2015,06,23,11,06,21.30
2015,06,23,11,07,21.20
2015,06,23,11,08,21.20
2015,06,23,11,09,21.10
2015,06,23,11,10,21.00
2015,06,23,11,11,20.80
2015,06,23,11,12,20.70
2015,06,23,11,13,20.50
2015,06,23,11,14,20.40
2015,06,23,11,15,20.30
2015,06,23,11,16,20.30
2015,06,23,11,17,20.30
2015,06,23,11,18,20.30
2015,06,23,11,19,20.40
2015,06,23,11,20,20.40
2015,06,23,11,21,20.40
2015,06,23,11,22,20.40
2015,06,23,11,23,20.40
2015,06,23,11,24,20.30
2015,06,23,11,25,20.20
2015,06,23,11,26,20.10
2015,06,23,11,27,20.10
2015,06,23,11,28,20.20
2015,06,23,11,29,20.30
2015,06,23,11,30,20.40
2015,06,23,11,31,20.50
2015,06,23,11,32,20.60
2015,06,23,11,33,20.60
2015,06,23,11,34,20.60
2015,06,23,11,35,20.60
2015,06,23,11,36,20.60
2015,06,23,11,37,20.60
2015,06,23,11,38,20.50
2015,06,23,11,39,20.40
2015,06,23,11,40,20.40
2015,06,23,11,41,20.40
2015,06,23,11,42,20.40
2015,06,23,11,43,20.40
2015,06,23,11,44,20.40
2015,06,23,11,45,20.30
2015,06,23,11,46,20.30
2015,06,23,11,47,20.30
2015,06,23,11,48,20.30
2015,06,23,11,49,20.50
2015,06,23,11,50,20.60
2015,06,23,11,51,20.80
2015,06,23,11,52,20.90
2015,06,23,11,53,21.00
2015,06,23,11,54,21.00
2015,06,23,11,55,21.00
2015,06,23,11,56,21.00
2015,06,23,11,57,21.00
2015,06,23,11,58,21.00
2015,06,23,11,59,21.00
2015,06,23,12,00,21.00
2015,06,23,12,01,21.00
2015,06,23,12,02,21.10
2015,06,23,12,03,21.10
2015,06,23,12,04,21.10
2015,06,23,12,05,21.10
2015,06,23,12,06,21.00
2015,06,23,12,07,21.10
2015,06,23,12,08,21.10
2015,06,23,12,09,21.00
2015,06,23,12,10,21.00
2015,06,23,12,11,21.00
2015,06,23,12,12,21.00
2015,06,23,12,13,21.00
2015,06,23,12,14,21.00
2015,06,23,12,15,20.90
2015,06,23,12,16,20.90
2015,06,23,12,17,20.90
2015,06,23,12,18,21.00
2015,06,23,12,19,20.90
2015,06,23,12,20,20.90
2015,06,23,12,21,20.90
2015,06,23,12,22,21.00
2015,06,23,12,23,21.00
2015,06,23,12,24,21.00
2015,06,23,12,25,21.00
2015,06,23,12,26,21.10
2015,06,23,12,27,21.10
2015,06,23,12,28,21.10
2015,06,23,12,29,21.10
2015,06,23,12,30,21.00
2015,06,23,12,31,20.90
2015,06,23,12,32,20.90
2015,06,23,12,33,20.80
2015,06,23,12,34,20.90
2015,06,23,12,35,20.90
2015,06,23,12,36,20.90
2015,06,23,12,37,20.90
2015,06,23,12,38,20.90
2015,06,23,12,39,20.90
2015,06,23,12,40,20.90
2015,06,23,12,41,21.00
2015,06,23,12,42,21.00
2015,06,23,12,43,21.10
2015,06,23,12,44,21.20
2015,06,23,12,45,21.30
2015,06,23,12,46,21.40
2015,06,23,12,47,21.50
2015,06,23,12,48,21.50
2015,06,23,12,49,21.50
2015,06,23,12,50,21.50
2015,06,23,12,51,21.40
2015,06,23,12,52,21.30
2015,06,23,12,53,21.30
2015,06,23,12,54,21.30
2015,06,23,12,55,21.30
2015,06,23,12,56,21.40
2015,06,23,12,57,21.40
2015,06,23,12,58,21.30
2015,06,23,12,59,21.30
2015,06,23,13,00,21.30
2015,06,23,13,01,21.40
2015,06,23,13,02,21.40
2015,06,23,13,03,21.30
2015,06,23,13,04,21.30
2015,06,23,13,05,21.30
2015,06,23,13,06,21.30
2015,06,23,13,07,21.20
2015,06,23,13,08,21.20
2015,06,23,13,09,21.20
2015,06,23,13,10,21.00
2015,06,23,13,11,20.90
2015,06,23,13,12,20.80
2015,06,23,13,13,20.80
2015,06,23,13,14,21.00
2015,06,23,13,15,21.10
2015,06,23,13,16,21.20
2015,06,23,13,17,21.20
2015,06,23,13,18,21.30
2015,06,23,13,19,21.20
2015,06,23,13,20,21.20
2015,06,23,13,21,21.30
2015,06,23,13,22,21.30
2015,06,23,13,23,21.40
2015,06,23,13,24,21.40
2015,06,23,13,25,21.40
2015,06,23,13,26,21.40
2015,06,23,13,27,21.40
2015,06,23,13,28,21.50
2015,06,23,13,29,21.50
2015,06,23,13,30,21.50
2015,06,23,13,31,21.50
2015,06,23,13,32,21.60
2015,06,23,13,33,21.60
2015,06,23,13,34,21.50
2015,06,23,13,35,21.50
2015,06,23,13,36,21.60
2015,06,23,13,37,21.60
2015,06,23,13,38,21.50
2015,06,23,13,39,21.50
2015,06,23,13,40,21.50
2015,06,23,13,41,21.50
2015,06,23,13,42,21.50
2015,06,23,13,43,21.50
2015,06,23,13,44,21.60
2015,06,23,13,45,21.70
2015,06,23,13,46,21.80
2015,06,23,13,47,21.90
2015,06,23,13,48,21.90
2015,06,23,13,49,22.00
2015,06,23,13,50,22.00
2015,06,23,13,51,22.20
2015,06,23,13,52,22.30
2015,06,23,13,53,22.30
2015,06,23,13,54,22.30
2015,06,23,13,55,22.20
2015,06,23,13,56,22.20
2015,06,23,13,57,22.20
2015,06,23,13,58,22.30
2015,06,23,13,59,22.30
2015,06,23,14,00,22.30
2015,06,23,14,01,22.30
2015,06,23,14,02,22.30
2015,06,23,14,03,22.20
2015,06,23,14,04,22.20
2015,06,23,14,05,22.20
2015,06,23,14,06,22.10
2015,06,23,14,07,22.10
2015,06,23,14,08,22.10
2015,06,23,14,09,22.20
2015,06,23,14,10,22.20
2015,06,23,14,11,22.20
2015,06,23,14,12,22.30
2015,06,23,14,13,22.30
2015,06,23,14,14,22.30
2015,06,23,14,15,22.40
2015,06,23,14,16,22.40
2015,06,23,14,17,22.40
2015,06,23,14,18,22.30
2015,06,23,14,19,22.10
2015,06,23,14,20,22.00
2015,06,23,14,21,22.00
2015,06,23,14,22,22.00
2015,06,23,14,23,22.00
2015,06,23,14,24,22.10
2015,06,23,14,25,22.10
2015,06,23,14,26,22.10
2015,06,23,14,27,22.00
2015,06,23,14,28,22.00
2015,06,23,14,29,21.80
2015,06,23,14,30,21.70
2015,06,23,14,31,21.60
2015,06,23,14,32,21.60
2015,06,23,14,33,21.60
2015,06,23,14,34,21.60
2015,06,23,14,35,21.70
2015,06,23,14,36,21.80
2015,06,23,14,37,21.80
2015,06,23,14,38,21.80
2015,06,23,14,39,21.90
2015,06,23,14,40,21.90
2015,06,23,14,41,21.90
2015,06,23,14,42,21.90
2015,06,23,14,43,21.90
2015,06,23,14,44,21.90
2015,06,23,14,45,21.90
2015,06,23,14,46,22.00
2015,06,23,14,47,22.00
2015,06,23,14,48,22.10
2015,06,23,14,49,22.00
2015,06,23,14,50,22.00
2015,06,23,14,51,22.10
2015,06,23,14,52,22.10
2015,06,23,14,53,22.10
2015,06,23,14,54,22.10
2015,06,23,14,55,22.10
2015,06,23,14,56,22.10
2015,06,23,14,57,22.10
2015,06,23,14,58,22.20
2015,06,23,14,59,22.20
2015,06,23,15,00,22.20
2015,06,23,15,01,22.20
2015,06,23,15,02,22.10
2015,06,23,15,03,22.00
2015,06,23,15,04,21.90
2015,06,23,15,05,21.90
2015,06,23,15,06,21.80
2015,06,23,15,07,21.80
2015,06,23,15,08,21.80
2015,06,23,15,09,21.90
2015,06,23,15,10,21.90
2015,06,23,15,11,21.90
2015,06,23,15,12,22.00
2015,06,23,15,13,22.10
2015,06,23,15,14,22.10
2015,06,23,15,15,22.10
2015,06,23,15,16,22.10
2015,06,23,15,17,22.00
2015,06,23,15,18,21.90
2015,06,23,15,19,21.90
2015,06,23,15,20,21.80
2015,06,23,15,21,21.80
2015,06,23,15,22,21.90
2015,06,23,15,23,21.90
2015,06,23,15,24,21.90
2015,06,23,15,25,21.90
2015,06,23,15,26,21.90
2015,06,23,15,27,22.00
2015,06,23,15,28,22.00
2015,06,23,15,29,22.10
2015,06,23,15,30,22.10
2015,06,23,15,31,22.10
2015,06,23,15,32,22.20
2015,06,23,15,33,22.30
2015,06,23,15,34,22.30
2015,06,23,15,35,22.40
2015,06,23,15,36,22.40
2015,06,23,15,37,22.50
2015,06,23,15,38,22.40
2015,06,23,15,39,22.40
2015,06,23,15,40,22.40
2015,06,23,15,41,22.40
2015,06,23,15,42,22.50
2015,06,23,15,43,22.60
2015,06,23,15,44,22.60
2015,06,23,15,45,22.70
2015,06,23,15,46,22.80
2015,06,23,15,47,22.90
2015,06,23,15,48,23.10
2015,06,23,15,49,23.20
2015,06,23,15,50,23.30
2015,06,23,15,51,23.40
2015,06,23,15,52,23.50
2015,06,23,15,53,23.50
2015,06,23,15,54,23.50
2015,06,23,15,55,23.50
2015,06,23,15,56,23.40
2015,06,23,15,57,23.40
2015,06,23,15,58,23.20
2015,06,23,15,59,23.10
2015,06,23,16,00,23.10
2015,06,23,16,01,23.10
2015,06,23,16,02,23.10
2015,06,23,16,03,23.20
2015,06,23,16,04,23.30
2015,06,23,16,05,23.30
2015,06,23,16,06,23.30
2015,06,23,16,07,23.30
2015,06,23,16,08,23.30
2015,06,23,16,09,23.30
2015,06,23,16,10,23.20
2015,06,23,16,11,23.00
2015,06,23,16,12,22.90
2015,06,23,16,13,22.80
2015,06,23,16,14,22.70
2015,06,23,16,15,22.70
2015,06,23,16,16,22.60
2015,06,23,16,17,22.60
2015,06,23,16,18,22.60
2015,06,23,16,19,22.60
2015,06,23,16,20,22.70
2015,06,23,16,21,22.70
2015,06,23,16,22,22.70
2015,06,23,16,23,22.70
2015,06,23,16,24,22.70
2015,06,23,16,25,22.60
2015,06,23,16,26,22.60
2015,06,23,16,27,22.70
2015,06,23,16,28,22.70
2015,06,23,16,29,22.70
2015,06,23,16,30,22.80
2015,06,23,16,31,22.90
2015,06,23,16,32,22.80
2015,06,23,16,33,22.90
2015,06,23,16,34,22.90
2015,06,23,16,35,22.90
2015,06,23,16,36,22.90
2015,06,23,16,37,22.90
2015,06,23,16,38,22.80
2015,06,23,16,39,22.70
2015,06,23,16,40,22.60
2015,06,23,16,41,22.50
2015,06,23,16,42,22.50
2015,06,23,16,43,22.40
2015,06,23,16,44,22.40
2015,06,23,16,45,22.40
2015,06,23,16,46,22.30
2015,06,23,16,47,22.40
2015,06,23,16,48,22.50
2015,06,23,16,49,22.60
2015,06,23,16,50,22.60
2015,06,23,16,51,22.70
2015,06,23,16,52,22.70
2015,06,23,16,53,22.70
2015,06,23,16,54,22.80
2015,06,23,16,55,22.80
2015,06,23,16,56,22.80
2015,06,23,16,57,22.80
2015,06,23,16,58,22.70
2015,06,23,16,59,22.80
2015,06,23,17,00,22.80
2015,06,23,17,01,22.80
2015,06,23,17,02,22.80
2015,06,23,17,03,22.90
2015,06,23,17,04,23.10
2015,06,23,17,05,23.10
2015,06,23,17,06,23.20
2015,06,23,17,07,23.30
2015,06,23,17,08,23.30
2015,06,23,17,09,23.30
2015,06,23,17,10,23.30
2015,06,23,17,11,23.30
2015,06,23,17,12,23.40
2015,06,23,17,13,23.40
2015,06,23,17,14,23.50
2015,06,23,17,15,23.50
2015,06,23,17,16,23.40
2015,06,23,17,17,23.30
2015,06,23,17,18,23.20
2015,06,23,17,19,23.10
2015,06,23,17,20,23.00
2015,06,23,17,21,22.90
2015,06,23,17,22,22.90
2015,06,23,17,23,22.90
2015,06,23,17,24,22.90
2015,06,23,17,25,23.00
2015,06,23,17,26,23.00
2015,06,23,17,27,23.10
2015,06,23,17,28,23.10
2015,06,23,17,29,23.10